This is the latest recevied weather packets stored in our database for station/object KD0KHX-10. If no packets are shown the sender has not sent any weather packets the latest 10 day(s).
| Time | Temp. | Humidity | Pressure | Rain* | Wind** | Luminosity | Snow |
|---|---|---|---|---|---|---|---|
| 1777703403 | 3.89° C | 76% | 1015.2 hPa | 0 mm | - | - | - |
| 1777703103 | 3.89° C | 76% | 1015.2 hPa | 0 mm | - | - | - |
| 1777702803 | 4.44° C | 76% | 1015.2 hPa | 0 mm | - | - | - |
| 1777702772 | 4.44° C | 76% | 1015.2 hPa | 0 mm | - | - | - |
| 1777702203 | 4.44° C | 76% | 1015 hPa | 0 mm | - | - | - |
| 1777701903 | 4.44° C | 76% | 1014.9 hPa | 0 mm | - | - | - |
| 1777701603 | 3.89° C | 76% | 1014.9 hPa | 0 mm | - | - | - |
| 1777701437 | 3.89° C | 74% | 1014.9 hPa | 0 mm | - | - | - |
| 1777701273 | 4.44° C | 73% | 1014.9 hPa | 0 mm | - | - | - |
| 1777700703 | 4.44° C | 74% | 1014.7 hPa | 0 mm | - | - | - |
| 1777700673 | 4.44° C | 74% | 1014.7 hPa | 0 mm | - | - | - |
| 1777700103 | 5° C | 70% | 1014.7 hPa | 0 mm | - | - | - |
| 1777700073 | 5.56° C | 69% | 1014.7 hPa | 0 mm | - | - | - |
| 1777699503 | 6.67° C | 72% | 1014.5 hPa | 0 mm | - | - | - |
| 1777699473 | 6.67° C | 72% | 1014.4 hPa | 0 mm | - | - | - |
| 1777698903 | 6.11° C | 71% | 1014.4 hPa | 0 mm | - | - | - |
| 1777698603 | 6.11° C | 70% | 1014.3 hPa | 0 mm | - | - | - |
| 1777698303 | 6.67° C | 70% | 1014.3 hPa | 0 mm | - | - | - |
| 1777698003 | 6.67° C | 70% | 1014.4 hPa | 0 mm | - | - | - |
| 1777697703 | 6.67° C | 70% | 1014.3 hPa | 0 mm | - | - | - |
| 1777697403 | 6.67° C | 70% | 1014.3 hPa | 0 mm | - | - | - |
| 1777697103 | 6.67° C | 69% | 1014.3 hPa | 0 mm | - | - | - |
| 1777696803 | 6.67° C | 69% | 1014.4 hPa | 0 mm | - | - | - |
| 1777696503 | 6.67° C | 68% | 1014.4 hPa | 0 mm | - | - | - |
| 1777696203 | 6.67° C | 68% | 1014.4 hPa | 0 mm | - | - | - |
* Rain latest hour (hover to see other rain measurements)
** Current wind speed in m/s (hover to see current wind gust speed)